Flag for Canada Weather past 2 weeks in Kenora, Ontario, Canada

Now
70 °F

Passing clouds.


Feels Like: 70 °F
Forecast: 58 / 64 °F
Wind: 17 mph from Southwest

Location: Kenora

Current Time: Jul 28, 2015 at 10:35:56 PM

Latest Report: Jul 28, 2015 at 10:00 PM


Visibility: 15 mi

Pressure: 29.54 "Hg

Humidity: 60%

Dew point: 55 °F

Location of KenoraLocation

Historic Weather in Kenora — Graph

°F

Kenora temperature yesterday

Maximum temperature yesterday: 86 °F (at 3:00 PM)
Minimum temperature yesterday: 70 °F (at 5:00 AM)
Average temperature yesterday: 79 °F

Past Weeks' High & Low Weather Summary

 TemperatureHumidityPressure
High86 °F (Jul 26, 5:00 PM)100% (Jul 15, 10:00 AM)29.96 "Hg (Jul 15, 10:00 AM)
Low54 °F (Jul 21, 6:00 AM)31% (Jul 14, 6:00 PM)29.53 "Hg (Jul 19, 7:00 PM)
Average70 °F75%29.80 "Hg
* Reported Jul 13 9:00 PM — Jul 28 9:00 PM, Kenora, Weather by CustomWeather, © 2015

Note: Actual official high and low records may vary slightly from our data, if they occured in-between our weather recording intervals... More about our weather records

Advertising

Kenora weather history for previous 24 hours

 ConditionsComfort  
Time TempWeatherWind HumidityBarometerVisibility
9:00 PM
Tue, Jul 28
72 °FBroken clouds.20 mph53%29.57 "Hg15 mi
8:00 PM72 °FBroken clouds.21 mph61%29.58 "Hg15 mi
7:00 PM73 °FScattered clouds.24 mph61%29.57 "Hg15 mi
6:00 PM77 °FScattered clouds.25 mph61%29.57 "Hg15 mi
5:00 PM79 °FPartly sunny.20 mph65%29.55 "Hg15 mi
4:00 PM79 °FPartly sunny.13 mph79%29.56 "Hg15 mi
3:00 PM75 °FPartly sunny.16 mph89%29.57 "Hg10 mi
2:00 PM72 °FSprinkles. Fog.12 mph94%29.59 "Hg2 mi
1:00 PM73 °FLow clouds.15 mph89%29.61 "Hg12 mi
12:00 PM72 °FLow clouds.12 mph94%29.65 "Hg12 mi
11:00 AM72 °FSprinkles. Mostly cloudy.10 mph94%29.67 "Hg6 mi
10:00 AM73 °FOvercast.9 mph83%29.68 "Hg12 mi
9:00 AM73 °FOvercast.13 mph83%29.67 "Hg12 mi
8:00 AM72 °FOvercast.14 mph88%29.68 "Hg15 mi
7:00 AM72 °FMostly cloudy.13 mph88%29.71 "Hg15 mi
6:00 AM72 °FPartly sunny.9 mph88%29.72 "Hg12 mi
5:00 AM72 °FPassing clouds.10 mph88%29.73 "Hg15 mi
4:00 AM72 °FPassing clouds.7 mph88%29.75 "Hg15 mi
3:00 AM73 °FPassing clouds.10 mph83%29.78 "Hg15 mi
2:00 AM73 °FPassing clouds.8 mph78%29.81 "Hg15 mi
1:00 AM75 °FPassing clouds.7 mph74%29.84 "Hg15 mi
12:00 AM75 °FPassing clouds.6 mph74%29.86 "Hg15 mi
11:00 PM
Mon, Jul 27
77 °FPassing clouds.5 mph65%29.86 "Hg15 mi
10:00 PM79 °FPassing clouds.7 mph61%29.86 "Hg15 mi
Weather by CustomWeather, © 2015

See weather overviewHow to use our weather pages